| time (UTC) | temp F | wind direction | speed MPH | gust MPH | rain 1hr in | rain 24hr in | rain mn in | humidity % | barometer mb |
| 20260903020103 | 73 | 278 | 0.0 | 0.0 | 0.00 | 0.01 | 0.01 | 46 | 1015.0 |
| 20260903014606 | 73 | 258 | 0.0 | 0.0 | 0.00 | 0.01 | 0.01 | 47 | 1015.3 |
| 20260903013055 | 73 | 269 | 0.0 | 0.0 | 0.00 | 0.01 | 0.01 | 47 | 1015.6 |
| 20260903011553 | 73 | 272 | 0.0 | 0.0 | 0.00 | 0.01 | 0.01 | 47 | 1015.6 |
| 20260903010052 | 74 | 248 | 0.0 | 0.0 | 0.00 | 0.01 | 0.01 | 46 | 1015.6 |
| 20260903004552 | 74 | 268 | 0.0 | 3.0 | 0.00 | 0.01 | 0.01 | 46 | 1015.6 |
| 20260903003145 | 74 | 237 | 0.0 | 2.0 | 0.00 | 0.01 | 0.01 | 46 | 1015.5 |
| 20260903001549 | 74 | 262 | 0.0 | 1.0 | 0.00 | 0.01 | 0.01 | 46 | 1015.9 |
| 20260903000040 | 75 | 262 | 0.0 | 4.0 | 0.00 | 0.01 | 0.01 | 47 | 1016.2 |
| 20260902234553 | 75 | 274 | 0.0 | 0.0 | 0.00 | 0.01 | 0.01 | 49 | 1015.7 |
| 20260902233038 | 76 | 249 | 0.0 | 0.0 | 0.00 | 0.01 | 0.01 | 52 | 1015.6 |
| 20260902231542 | 76 | 276 | 0.0 | 0.0 | 0.00 | 0.01 | 0.01 | 54 | 1015.6 |
| 20260902230033 | 76 | 255 | 0.0 | 0.0 | 0.00 | 0.01 | 0.01 | 54 | 1016.1 |
| 20260902224529 | 77 | 269 | 0.0 | 0.0 | 0.00 | 0.01 | 0.01 | 56 | 1016.2 |
| 20260902223028 | 78 | 262 | 0.0 | 0.0 | 0.00 | 0.01 | 0.01 | 56 | 1016.0 |
| 20260902221528 | 79 | 269 | 0.0 | 3.0 | 0.00 | 0.01 | 0.01 | 55 | 1015.7 |
| 20260902220030 | 79 | 194 | 0.0 | 3.0 | 0.00 | 0.01 | 0.01 | 53 | 1015.8 |
| 20260902214521 | 77 | 238 | 0.0 | 0.0 | 0.00 | 0.01 | 0.01 | 47 | 1016.0 |
| 20260902213019 | 76 | 143 | 0.0 | 0.0 | 0.00 | 0.01 | 0.01 | 40 | 1016.3 |
| 20260902211616 | 75 | 211 | 0.0 | 1.0 | 0.00 | 0.01 | 0.01 | 40 | 1016.5 |
| 20260902210014 | 75 | 188 | 1.0 | 4.0 | 0.00 | 0.01 | 0.01 | 40 | 1016.1 |
| 20260902204512 | 75 | 241 | 0.0 | 0.0 | 0.00 | 0.01 | 0.01 | 41 | 1016.1 |
| 20260902203009 | 75 | 352 | 0.0 | 2.0 | 0.00 | 0.01 | 0.01 | 42 | 1015.8 |
| 20260902201507 | 75 | 239 | 0.0 | 4.0 | 0.01 | 0.01 | 0.01 | 43 | 1016.2 |
| 20260902200004 | 75 | 266 | 0.0 | 2.0 | 0.01 | 0.01 | 0.01 | 47 | 1016.6 |
| 20260902194602 | 76 | 45 | 0.0 | 1.0 | 0.01 | 0.01 | 0.01 | 55 | 1016.7 |
| 20260902193059 | 77 | 6 | 0.0 | 2.0 | 0.01 | 0.01 | 0.01 | 59 | 1016.8 |
| 20260902191557 | 78 | 273 | 1.0 | 5.0 | 0.00 | 0.00 | 0.00 | 62 | 1016.5 |
| 20260902190054 | 82 | 53 | 4.0 | 9.0 | 0.00 | 0.00 | 0.00 | 55 | 1017.0 |
| 20260902184551 | 85 | 114 | 6.0 | 15.0 | 0.00 | 0.00 | 0.00 | 52 | 1016.2 |
| 20260902183050 | 88 | 39 | 8.0 | 17.0 | 0.00 | 0.00 | 0.00 | 49 | 1016.0 |
| 20260902181555 | 91 | 133 | 1.0 | 8.0 | 0.00 | 0.00 | 0.00 | 45 | 1015.8 |
| 20260902180055 | 92 | 91 | 2.0 | 8.0 | 0.00 | 0.00 | 0.00 | 46 | 1015.8 |
| 20260902174553 | 93 | 298 | 1.0 | 5.0 | 0.00 | 0.00 | 0.00 | 44 | 1016.0 |
| 20260902173046 | 94 | 277 | 1.0 | 5.0 | 0.00 | 0.00 | 0.00 | 43 | 1016.2 |
| 20260902171554 | 93 | 44 | 1.0 | 4.0 | 0.00 | 0.00 | 0.00 | 44 | 1016.3 |
| 20260902170042 | 91 | 319 | 1.0 | 7.0 | 0.00 | 0.00 | 0.00 | 45 | 1016.5 |
| 20260902164640 | 92 | 298 | 2.0 | 5.0 | 0.00 | 0.00 | 0.00 | 46 | 1016.6 |
| 20260902163038 | 91 | 338 | 0.0 | 3.0 | 0.00 | 0.00 | 0.00 | 47 | 1016.4 |
| 20260902161541 | 89 | 252 | 1.0 | 5.0 | 0.00 | 0.00 | 0.00 | 48 | 1016.6 |
| 20260902160034 | 89 | 268 | 1.0 | 6.0 | 0.00 | 0.00 | 0.00 | 50 | 1016.6 |
| 20260902154533 | 88 | 237 | 3.0 | 5.0 | 0.00 | 0.00 | 0.00 | 50 | 1016.5 |
| 20260902153035 | 88 | 223 | 3.0 | 6.0 | 0.00 | 0.00 | 0.00 | 51 | 1016.4 |
| 20260902151531 | 89 | 213 | 1.0 | 5.0 | 0.00 | 0.00 | 0.00 | 48 | 1016.6 |
| 20260902150030 | 87 | 289 | 1.0 | 4.0 | 0.00 | 0.00 | 0.00 | 50 | 1016.5 |
| 20260902144525 | 87 | 160 | 1.0 | 6.0 | 0.00 | 0.00 | 0.00 | 50 | 1016.5 |
| 20260902143023 | 87 | 176 | 1.0 | 4.0 | 0.00 | 0.00 | 0.00 | 51 | 1016.3 |
| 20260902141524 | 86 | 79 | 2.0 | 4.0 | 0.00 | 0.00 | 0.00 | 52 | 1016.5 |
| 20260902140016 | 85 | 112 | 2.0 | 5.0 | 0.00 | 0.00 | 0.00 | 52 | 1016.5 |
| 20260902134506 | 84 | 166 | 1.0 | 4.0 | 0.00 | 0.00 | 0.00 | 53 | 1016.3 |
| 20260902133005 | 83 | 262 | 0.0 | 2.0 | 0.00 | 0.00 | 0.00 | 54 | 1016.4 |
| 20260902131600 | 83 | 103 | 0.0 | 4.0 | 0.00 | 0.00 | 0.00 | 54 | 1016.4 |
| 20260902130055 | 81 | 135 | 2.0 | 4.0 | 0.00 | 0.00 | 0.00 | 55 | 1016.4 |
| 20260902124555 | 81 | 29 | 0.0 | 2.0 | 0.00 | 0.00 | 0.00 | 55 | 1016.4 |
| 20260902123147 | 80 | 131 | 0.0 | 3.0 | 0.00 | 0.00 | 0.00 | 55 | 1016.1 |
| 20260902121615 | 78 | 41 | 0.0 | 0.0 | 0.00 | 0.00 | 0.00 | 56 | 1016.0 |
| 20260902120044 | 77 | 330 | 0.0 | 0.0 | 0.00 | 0.00 | 0.00 | 57 | 1016.2 |
| 20260902114603 | 76 | 22 | 0.0 | 0.0 | 0.00 | 0.00 | 0.00 | 59 | 1016.2 |
| 20260902113047 | 75 | 27 | 0.0 | 0.0 | 0.00 | 0.00 | 0.00 | 59 | 1016.0 |
| 20260902111530 | 0 | 0.0 | 0.0 | 0.00 | 0.00 | 0.00 | 1015.9 | ||
| 20260902110036 | 0 | 0.0 | 0.0 | 0.00 | 0.00 | 0.00 | 1016.0 | ||
| 20260902104532 | 0 | 0.0 | 0.0 | 0.00 | 0.00 | 0.00 | 1016.0 | ||
| 20260902103021 | 0 | 0.0 | 0.0 | 0.00 | 0.00 | 0.00 | 1016.1 | ||
| 20260902101510 | 0 | 352 | 0.0 | 0.0 | 0.00 | 0.00 | 0.00 | 1015.7 | |
| 20260902100011 | 75 | 356 | 0.0 | 0.0 | 0.00 | 0.00 | 0.00 | 62 | 1015.6 |
| 20260902094503 | 76 | 356 | 0.0 | 0.0 | 0.00 | 0.00 | 0.00 | 62 | 1015.5 |
| 20260902093111 | 76 | 356 | 0.0 | 0.0 | 0.00 | 0.00 | 0.00 | 61 | 1015.5 |
| 20260902091559 | 76 | 349 | 0.0 | 0.0 | 0.00 | 0.00 | 0.00 | 61 | 1015.4 |
| 20260902090101 | 76 | 328 | 0.0 | 1.0 | 0.00 | 0.00 | 0.00 | 61 | 1015.4 |
| 20260902084554 | 76 | 328 | 0.0 | 0.0 | 0.00 | 0.00 | 0.00 | 62 | 1015.5 |
| 20260902083052 | 76 | 328 | 0.0 | 0.0 | 0.00 | 0.00 | 0.00 | 61 | 1015.4 |
| 20260902081553 | 76 | 328 | 0.0 | 1.0 | 0.00 | 0.00 | 0.00 | 61 | 1015.3 |
| 20260902080045 | 77 | 328 | 0.0 | 0.0 | 0.00 | 0.00 | 0.00 | 60 | 1015.4 |
| 20260902074555 | 77 | 328 | 0.0 | 1.0 | 0.00 | 0.00 | 0.00 | 59 | 1015.3 |
| 20260902073043 | 78 | 329 | 0.0 | 1.0 | 0.00 | 0.00 | 0.00 | 59 | 1015.3 |
| 20260902071538 | 79 | 27 | 1.0 | 5.0 | 0.00 | 0.00 | 0.00 | 57 | 1015.2 |
| 20260902070035 | 79 | 20 | 1.0 | 5.0 | 0.00 | 0.00 | 0.00 | 57 | 1015.2 |
| 20260902064536 | 79 | 4 | 0.0 | 4.0 | 0.00 | 0.00 | 0.00 | 56 | 1015.1 |
| 20260902063034 | 80 | 49 | 2.0 | 7.0 | 0.00 | 0.00 | 0.00 | 54 | 1015.1 |
| 20260902061540 | 80 | 18 | 3.0 | 9.0 | 0.00 | 0.00 | 0.00 | 54 | 1015.3 |
| 20260902060038 | 79 | 67 | 0.0 | 6.0 | 0.00 | 0.00 | 0.00 | 55 | 1015.1 |
| 20260902054536 | 80 | 238 | 0.0 | 1.0 | 0.00 | 0.00 | 0.00 | 54 | 1014.9 |
| 20260902053024 | 81 | 274 | 0.0 | 2.0 | 0.00 | 0.00 | 0.00 | 53 | 1015.0 |
| 20260902051520 | 80 | 21 | 0.0 | 3.0 | 0.00 | 0.00 | 0.00 | 54 | 1014.8 |
| 20260902050013 | 78 | 76 | 0.0 | 1.0 | 0.00 | 0.00 | 0.00 | 57 | 1014.6 |
| 20260902044511 | 78 | 246 | 0.0 | 1.0 | 0.00 | 0.00 | 0.00 | 60 | 1014.6 |
| 20260902043007 | 78 | 262 | 0.0 | 0.0 | 0.00 | 0.00 | 0.00 | 59 | 1014.6 |
| 20260902041605 | 78 | 262 | 0.0 | 0.0 | 0.00 | 0.00 | 0.00 | 58 | 1014.8 |
| 20260902034605 | 78 | 262 | 0.0 | 0.0 | 0.00 | 0.00 | 0.00 | 61 | 1014.4 |
| 20260902033104 | 78 | 262 | 0.0 | 0.0 | 0.00 | 0.00 | 0.00 | 62 | 1014.2 |
| 20260902031554 | 78 | 262 | 0.0 | 0.0 | 0.00 | 0.00 | 0.00 | 62 | 1014.0 |
| 20260902030051 | 79 | 261 | 0.0 | 0.0 | 0.00 | 0.00 | 0.00 | 61 | 1013.7 |
| 20260902024549 | 80 | 352 | 0.0 | 1.0 | 0.00 | 0.00 | 0.00 | 61 | 1014.0 |
| 20260902023050 | 81 | 352 | 0.0 | 1.0 | 0.00 | 0.00 | 0.00 | 59 | 1014.2 |
| 20260902021545 | 82 | 352 | 0.0 | 1.0 | 0.00 | 0.00 | 0.00 | 57 | 1014.1 |